Погода в Балашове

Хотите узнать прогноз погоды в Балашове? Тогда Вам сюда: Погода в Балашове

Поиск расширенной информации на нашем сайте:

Полезная информация:

Новости сайта



14.11.2019
Обновлён Долгосрочный прогноз погоды по России и другим странам хСССР на ноябрь-декабрь 2019 года.
Опубликованы прогностические карты: Предварительный прогноз на декабрь 2019 года, Предварительный прогноз на январь 2020 года, Предварительная схема синоптических процессов на декабрь 2019 г..

11.11.2019
Обновлены Долгосрочный прогноз погоды по России и другим странам хСССР на ноябрь-декабрь 2019 года и Предварительный прогноз на зиму 2019/2020 годов

04.11.2019
Опубликован Долгосрочный прогноз погоды по России и другим странам хСССР на ноябрь 2019 года
Сравнение прогнозируемой аномалии приземной температуры воздуха на ноябрь 2019 года по разным моделям
Предварительный прогноз на зиму 2019/2020 года




Погода в Балашове - сегодня

Время (UTC), дата Ветер
(°,м/с) 
Видим.   Явления Облачность Т
(°С)
Тd
(°С)
f(%) Тe
(°С)
Pmin
(гПа)
dP
(гПа)
Po
(мм)
O2
(г/м3)
Тmin Tmax R s Состояние
почвы
21 17.11.19 120 (ЮВ) 10 км  в посл. час морось  10/10 300 м 
[St]
+1.3 +0.9 97 +2  1035  -0.2  761  305           
00 18.11.19 170 (Ю) 4000 м  слаб. морось  10/10 100 м 
[St]
+1.8 +1.4 97 +3  1034.4  -0.6  761  304           
03 18.11.19 170 (Ю) 4000 м  дымка{морось}  10/10 100 м 
[St]
+1.6 +1.2 97 1033.4  -1  760  304  +0.4    0.3     
06 18.11.19 200 (Ю) 10 км  {морось}  10/10 200 м 
[St]
+1.4 +0.9 96 +1  1033.1  -0.3  760  304           
09 18.11.19 190 (Ю) 20000 м    10/10 200 м 
[St]
+2.6 +1.2 90 +2  1032.8  -0.2  760  303           
12 18.11.19 180 (Ю) 20000 м    10/10 600 м 
[Sc]
+3.7 +3.2 97 +3  1031.3  -1.4  759  301           
15 18.11.19 180 (Ю) 20000 м    10/10 600 м 
[Sc]
+2.2 +2 99 +2  1031.1  -0.3  758  303    +3.7       
18 18.11.19 210 (ЮЗ) 2000 м  слаб. морось  10/10 200 м 
[St]
+1.5 +1.1 97 +1  1031  -0.2  758  304           
21 18.11.19 220 (ЮЗ) 2000 м  в посл. час морось  10/10 200 м 
[St]
+1 +0.7 98 +2  1030.8  -0.2  758  304           
00 19.11.19 320 (СЗ) 4000 м  дымка{морось}  10/10 300 м 
[St]
+1.2 +0.7 96 +2  1031.1  0.3  758  304           
03 19.11.19 330 (СЗ) 10 км    10/10 300 м 
[St]
+1.2 +0.8 97 +1  1030.8  -0.3  758  304  +1    0.0     
06 19.11.19 360 (С) 0200 м  туман  ?/?  
+1.7 +1.4 98 +2  1031.1  0.4  758  303           
09 19.11.19 030 (СВ) 10 км  {туман}  10/10 300 м 
[St]
+3.1 +2.5 96 +4  1031  0.1  758  302           
12 19.11.19 020 (С) 10 км  {туман}  10/10 300 м 
[St]
+3.9 +3.7 99 +3  1031  758  301           
15 19.11.19 020 (С) 10 км    10/10 300 м 
[St]
+3.6 +2.4 92 +3  1031.6  0.6  759  301    +3.9       
18 19.11.19 060 (СВ) 20000 м    10/10 1000 м 
[Sc]
+4.1 +2.9 92 +4  1032.1  0.5  759  301           
21 19.11.19 060 (СВ) 20000 м    10/10 1000 м 
[Sc]
+4.1 +2.9 92 +4  1033.1  760  301           
00 20.11.19 110 (В) 20000 м    10/10 600 м 
[Sc]
+3.7 +3 95 +2  1034.5  1.3  761  302           
03 20.11.19 080 (В) 10 км    10/10 300 м 
[Sc]
+2.3 +2 98 +3  1035.7  1.1  762  304  +2.3         
06 20.11.19 090 (В) 10 км    10/10 300 м 
[St]
-0.4 -1.7 91 -3  1038.5  2.5  764  308  -0.4         
09 20.11.19 080 (В) 20000 м  {снег}  10/10 300 м 
[Sc]
-2.5 -4.3 87 -5  1040.3  1.6  765  312           
12 20.11.19 090 (В) 4-10{10}  20000 м  {снег}  3/3 600 м 
[Sc]
-4.2 -9.3 68 -7  1042.3  1.8  766  315           
15 20.11.19 090 (В) 4-10{10}  20000 м    10/10 600 м 
[Sc]
-6.2 -9.1 80 -10  1044.8  2.3  768  318    +2.4  0.0     
18 20.11.19 100 (В) 2{10}  20000 м    10/10 600 м 
[Sc]
-6.7 -9.2 82 -8  1046.8  1.9  769  319           
21 20.11.19 110 (В) 20000 м    10/10 600 м 
[Sc]
-7.8 -10.7 80 -11  1048.2  1.3  770  321           
Время (UTC), дата Ветер
(°,м/с) 
Видим.   Явления Облачность Т
(°С)
Тd
(°С)
f(%) Тe
(°С)
Pmin
(гПа)
dP
(гПа)
Po
(мм)
O2
(г/м3)
Тmin Tmax R s Состояние
почвы

Для получения пояснительной информации подведите курсор к названию столбца.

ПОГОДА в Балашове - архив

Всё, что Вы хотите узнать о погоде в Балашове - удобно и подробно!

Выберите нужную дату (начиная с 1 января 2019* года) и нажмите кнопку "Найти".
Будут отображены архивные сводки погоды по пункту Балашов, начиная с указанной даты.


Отображать данные в формате CSV (для использования в таблицах Excel)


Внимание! Наш архив погоды предназначен исключительно для личного некоммерческого использования в познавательных целях. Если Вам необходимы официальные справки о состоянии погоды (для производственных, юридических, коммерческих и т.п. целей), обращайтесь в органы Росгидромета.

*Примечание: данная дата относится к архиву по метеостанциям СССР (Россия, СНГ, Балтия).
Архив по метеостанциям Зарубежной Европы и Азии (кроме Китая) хранится 10 дней, по другим регионам земного шара (Китай, Африка, Америка, Австралия, Океания) - 1 день.

Балашов - район местоположения метеостанции


Название, широта, долгота, высота метеостанции:
Балашов 51.6°ш. 43.2°д. 159 м над ур. моря [Российская Федерация]

Дополнительная информация

В oтличие oт бoльшинства пoгoдных сайтoв мы публикуем пoдрoбную метеoинфoрмацию в детальнoм прoфессиoнальнoм фoрмате.

Характеристики температуры и влажнoсти вoздуха измеряются на высoте 2 м в тени вдали oт зданий и деревьев.
Скoрoсть ветра измеряется на высoте 10 м (на урoвне рoста челoвека скoрoсть ветра ниже в 1.5-2 раза). Если метеoстанция нахoдится в гoрoде или в лесу, тo скoрoсть ветра занижена на 2-4 м/с пo сравнению с oткрытым местoм. Скoрoсть ветра над акватoриями крупных рек и oзёр, а также на вершинах хoлмoв на 2-5 м/с выше, чем в oбычных услoвиях.
Атмoсфернoе давление в разных тoчках местнoсти мoжет значительнo oтличаться oт давления на метеoстанции, в зависимoсти oт услoвий рельефа (при пoдъёме на 10 м давление пoнижается примернo на 1 мм рт.ст.).